Location: Stara Lesna
(49.1528°N, 20.2911°E)
Time: 03:00:44
(UTC+02:00)

Cosmos 1408 Rocket - Pass Details

Date: 13 July 2020
Orbit: 601 x 630 km, 82.6° (Epoch: 11 August)

Event Time Altitude Azimuth Distance (km) Brightness Sun altitude
Exits shadow 00:14:50 24° 228° (SW) 1,289 4.9 -18.7°
Maximum altitude 00:17:04 43° 285° (WNW) 882 4.5 -18.8°
Drops below altitude 10° 00:21:19 10° 358° (N) 2,013 7.4 -18.9°
Sets 00:23:40 0° 5° (N) 2,929 8.6 -18.9°
